Date String (YYYY-MM-DD hh:mm:ss) UTC,Instrument flags,absolute air pressure of the measurement (hPa),sample flow rate (lpm),inlet stack bypass flow (lpm),air temperature of the measurement (°C),ambient temperature measured by the external sensor (°C),aerosol sample conditioner tube jacket temperature (°C),OPC LED temperature (°C),internal box temperature (°C),relative humidity of the measurement (%),span deviation,mass concentration of particles derived from Lorenz-Mie calculation of OPC scattering (μg/m³),mass concentration of particles derived from Lorenz-Mie calculation of OPC scattering (μg/m³),mass concentration of particles derived from Lorenz-Mie calculation of OPC scattering (μg/m³)
DateTimeUTC,F1_M11,P_M11,Q1_M11,Q2_M11,T1_M11,T2_M11,T3_M11,T4_M11,T5_M11,U1_M11,ZSPAN_M11,X0_M11,X2_M11,X1_M11
2024-04-21 03:00:00,SystemResetWarning,0837.5,5.00,000.00,019.4,018.8,000.0,027.9,021.1,022.5,0001.4,0008.33,0006.09,0005.82
2024-04-21 03:01:00,SystemResetWarning,0837.6,5.01,000.00,019.4,018.8,000.0,027.9,021.1,022.5,0001.3,0008.22,0006.11,0005.82
2024-04-21 03:02:00,SystemResetWarning,0837.6,5.01,000.00,019.4,018.8,000.0,027.9,021.1,022.5,0001.0,0008.18,0006.11,0005.83
2024-04-21 03:03:00,SystemResetWarning,0837.6,5.00,000.00,019.4,018.8,000.0,027.9,021.1,022.6,0001.3,0008.17,0006.12,0005.84
2024-04-21 03:04:00,SystemResetWarning,0837.6,5.00,000.00,019.4,018.8,000.0,027.9,021.1,022.6,0001.6,0008.17,0006.13,0005.85
2024-04-21 03:05:00,SystemResetWarning,0837.6,4.99,000.00,019.4,018.8,000.0,027.9,021.1,022.6,0002.2,0008.16,0006.13,0005.86
2024-04-21 03:06:00,SystemResetWarning,0837.6,5.00,000.00,019.4,018.8,000.0,027.9,021.2,022.6,0002.1,0008.16,0006.13,0005.87
2024-04-21 03:07:00,SystemResetWarning,0837.6,5.00,000.00,019.4,018.8,000.0,027.9,021.1,022.6,0002.2,0008.13,0006.13,0005.88
2024-04-21 03:08:00,SystemResetWarning,0837.7,5.00,000.00,019.4,018.8,000.0,027.9,021.1,022.6,0001.7,0008.12,0006.15,0005.91
2024-04-21 03:09:00,SystemResetWarning,0837.8,5.00,000.00,019.4,018.8,000.0,027.9,021.1,022.7,0001.7,0008.16,0006.17,0005.92
2024-04-21 03:10:00,SystemResetWarning,0837.8,5.01,000.00,019.4,018.8,000.0,027.9,021.1,022.7,0001.8,0008.30,0006.24,0005.95
2024-04-21 03:11:00,SystemResetWarning,0837.8,5.01,000.00,019.4,018.8,000.0,027.9,021.1,022.7,0001.7,0008.51,0006.31,0005.97
2024-04-21 03:12:00,SystemResetWarning,0837.8,5.01,000.00,019.4,018.8,000.0,027.9,021.1,022.6,0001.6,0008.53,0006.33,0005.98
2024-04-21 03:13:00,SystemResetWarning,0837.8,5.00,000.00,019.4,018.8,000.0,027.9,021.1,022.6,0001.7,0008.51,0006.33,0005.99
2024-04-21 03:14:00,SystemResetWarning,0837.8,5.00,000.00,019.4,018.8,000.0,027.9,021.1,022.6,0001.7,0008.66,0006.33,0006.00
2024-04-21 03:15:00,SystemResetWarning,0837.8,4.99,000.00,019.4,018.8,000.0,027.9,021.1,022.6,0001.4,0008.83,0006.37,0006.02
2024-04-21 03:16:00,SystemResetWarning,0837.8,5.00,000.00,019.4,018.8,000.0,027.9,021.1,022.7,0001.2,0008.90,0006.42,0006.05
2024-04-21 03:17:00,SystemResetWarning,0837.7,4.99,000.00,019.4,018.8,000.0,027.9,021.1,022.7,0000.8,0008.93,0006.44,0006.06
2024-04-21 03:18:00,SystemResetWarning,0837.8,5.00,000.00,019.4,018.8,000.0,027.9,021.1,022.7,0000.6,0009.04,0006.47,0006.08
2024-04-21 03:19:00,SystemResetWarning,0837.8,4.99,000.00,019.3,018.8,000.0,027.9,021.1,022.7,0001.1,0009.14,0006.51,0006.10
2024-04-21 03:20:00,SystemResetWarning,0837.8,5.00,000.00,019.4,018.8,000.0,027.9,021.1,023.0,0001.4,0009.13,0006.52,0006.13
2024-04-21 03:21:00,SystemResetWarning,0837.9,5.00,000.00,019.4,018.8,000.0,027.9,021.1,023.9,0001.5,0008.99,0006.48,0006.14
2024-04-21 03:22:00,SystemResetWarning,0838.0,5.01,000.00,019.4,018.8,000.0,027.9,021.1,023.3,0001.4,0008.90,0006.47,0006.16
2024-04-21 03:23:00,SystemResetWarning,0838.0,5.00,000.00,019.4,018.8,000.0,027.9,021.1,023.0,0001.2,0008.93,0006.48,0006.19
2024-04-21 03:24:00,SystemResetWarning,0838.0,4.99,000.00,019.4,018.8,000.0,027.9,021.1,022.9,0001.7,0009.15,0006.52,0006.23
2024-04-21 03:25:00,SystemResetWarning,0838.1,4.99,000.00,019.4,018.8,000.0,027.9,021.1,022.9,0001.5,0009.07,0006.57,0006.28
2024-04-21 03:26:00,SystemResetWarning,0838.1,5.00,000.00,019.4,018.8,000.0,027.9,021.1,022.9,0001.1,0009.02,0006.60,0006.31
2024-04-21 03:27:00,SystemResetWarning,0838.2,5.01,000.00,019.4,018.8,000.0,027.9,021.1,022.9,0001.1,0009.00,0006.61,0006.33
2024-04-21 03:28:00,SystemResetWarning,0838.2,5.01,000.00,019.4,018.8,000.0,027.9,021.1,022.9,0001.7,0009.08,0006.66,0006.37
2024-04-21 03:29:00,SystemResetWarning,0838.1,5.00,000.00,019.4,018.8,000.0,027.9,021.1,022.9,0001.9,0009.30,0006.69,0006.39
2024-04-21 03:30:00,SystemResetWarning,0838.2,5.00,000.00,019.4,018.8,000.0,027.9,021.1,022.9,0001.8,0009.32,0006.69,0006.39
2024-04-21 03:31:00,SystemResetWarning,0838.2,5.00,000.00,019.4,018.8,000.0,027.9,021.1,022.9,0001.2,0009.46,0006.70,0006.40
2024-04-21 03:32:00,SystemResetWarning,0838.2,4.99,000.00,019.4,018.8,000.0,027.9,021.1,022.9,0001.3,0009.88,0006.74,0006.41
2024-04-21 03:33:00,SystemResetWarning,0838.1,5.00,000.00,019.4,018.8,000.0,027.9,021.1,022.9,0001.6,0009.90,0006.76,0006.42
2024-04-21 03:34:00,SystemResetWarning,0838.2,5.00,000.00,019.4,018.8,000.0,027.9,021.1,022.8,0001.8,0009.98,0006.76,0006.42
2024-04-21 03:35:00,SystemResetWarning,0838.2,5.00,000.00,019.4,018.8,000.0,027.9,021.1,022.8,0001.6,0010.56,0006.77,0006.44
2024-04-21 03:36:00,SystemResetWarning,0838.1,5.00,000.00,019.4,018.8,000.0,027.9,021.1,022.8,0001.8,0010.55,0006.75,0006.42
2024-04-21 03:37:00,SystemResetWarning,0838.1,5.00,000.00,019.4,018.8,000.0,027.9,021.1,022.9,0002.2,0010.51,0006.72,0006.40
2024-04-21 03:38:00,SystemResetWarning,0838.2,5.01,000.00,019.4,018.8,000.0,027.9,021.1,022.9,0002.0,0010.49,0006.71,0006.40
2024-04-21 03:39:00,SystemResetWarning,0838.2,5.01,000.00,019.4,018.8,000.0,027.9,021.1,022.8,0001.9,0010.46,0006.70,0006.40
2024-04-21 03:40:00,SystemResetWarning,0838.2,5.01,000.00,019.4,018.8,000.0,027.9,021.1,022.8,0002.0,0010.26,0006.71,0006.41
2024-04-21 03:41:00,SystemResetWarning,0838.2,5.00,000.00,019.4,018.8,000.0,027.9,021.1,022.8,0001.9,0010.27,0006.74,0006.42
2024-04-21 03:42:00,SystemResetWarning,0838.2,5.00,000.00,019.4,018.8,000.0,027.9,021.1,022.9,0002.5,0010.19,0006.76,0006.44
2024-04-21 03:43:00,SystemResetWarning,0838.1,5.00,000.00,019.4,018.8,000.0,027.9,021.1,022.8,0002.7,0009.81,0006.75,0006.44
2024-04-21 03:44:00,SystemResetWarning,0838.1,5.00,000.00,019.4,018.8,000.0,027.9,021.1,022.9,0002.6,0009.92,0006.72,0006.43
2024-04-21 03:45:00,SystemResetWarning,0838.2,5.01,000.00,019.4,018.8,000.0,027.9,021.2,022.9,0002.3,0009.96,0006.72,0006.43
2024-04-21 03:46:00,SystemResetWarning,0838.1,5.01,000.00,019.4,018.8,000.0,027.9,021.2,022.8,0001.9,0009.18,0006.71,0006.43
2024-04-21 03:47:00,SystemResetWarning,0838.2,4.99,000.00,019.4,018.8,000.0,027.9,021.2,022.8,0002.2,0009.21,0006.74,0006.45
2024-04-21 03:48:00,SystemResetWarning,0838.2,4.99,000.00,019.4,018.8,000.0,027.9,021.2,022.8,0002.6,0009.23,0006.79,0006.49
2024-04-21 03:49:00,SystemResetWarning,0838.2,5.01,000.00,019.4,018.8,000.0,027.9,021.1,022.8,0002.8,0009.32,0006.85,0006.54
2024-04-21 03:50:00,SystemResetWarning,0838.2,5.01,000.00,019.4,018.8,000.0,027.9,021.2,022.9,0002.6,0009.37,0006.88,0006.56
2024-04-21 03:51:00,SystemResetWarning,0838.2,5.00,000.00,019.4,018.8,000.0,027.9,021.1,022.9,0002.4,0009.37,0006.90,0006.60
2024-04-21 03:52:00,SystemResetWarning,0838.1,5.00,000.00,019.4,018.8,000.0,027.9,021.1,022.9,0002.8,0009.36,0006.92,0006.63
2024-04-21 03:53:00,SystemResetWarning,0838.2,4.99,000.00,019.4,018.8,000.0,027.9,021.1,022.9,0002.9,0009.40,0006.97,0006.67
2024-04-21 03:54:00,SystemResetWarning,0838.2,5.00,000.00,019.4,018.8,000.0,027.9,021.2,022.9,0002.7,0009.53,0007.04,0006.72
2024-04-21 03:55:00,SystemResetWarning,0838.2,5.00,000.00,019.4,018.8,000.0,027.9,021.1,022.9,0002.6,0009.44,0007.09,0006.77
2024-04-21 03:56:00,SystemResetWarning,0838.2,5.01,000.00,019.4,018.8,000.0,027.9,021.1,022.9,0002.9,0009.36,0007.14,0006.82
2024-04-21 03:57:00,SystemResetWarning,0838.1,4.99,000.00,019.4,018.8,000.0,027.9,021.1,022.9,0002.8,0009.39,0007.16,0006.84
2024-04-21 03:58:00,SystemResetWarning,0838.1,4.99,000.00,019.4,018.8,000.0,027.9,021.1,022.9,0002.5,0009.35,0007.17,0006.86
2024-04-21 03:59:00,SystemResetWarning,0838.2,5.01,000.00,019.4,018.8,000.0,027.9,021.1,022.9,0002.3,0009.37,0007.17,0006.87
